Weather in Bavleny

Russia / Vladimir Oblast     56°23′40″N   39°33′50″E
temp.,
°C
wind,
m/s
gust,
m/s
humid.,
%
clouds,
%
prec.,
mm/h
press.,
hPa
HPBL,
m
23 october, sat
sat2300:00+5wsw815705 0.0 1000883
03:00+4wsw61376100 0.0 1001711
06:00+5sw61377100 0.0 1001837
09:00+6sw71171100 0.0 10021151
12:00+5sw7128246 0.0 1003878
15:00+7sw71169100 0.1 10031214
18:00+3wsw81583100 0.1 1005843
21:00+3wsw51183100 0.6 1006524
24 october, sun
sun2400:00+3wsw4108628 0.0 1008365
03:00+2wsw4988100 0.0 1008427
06:00+3sw4892100 0.0 1008532
09:00+2w479699 0.5 1009502
12:00+3w4897100 0.1 1011712
15:00+1nw71496100 1.3 1013683
18:00+1nnw8138092 0.3 10161114
21:000nnw713765 0.4 1020714
25 october, mon
mon2500:00−1nw612896 0.0 1022525
03:00−2nw511939 0.0 1024401
06:00−2nw489612 0.0 1026252
09:00−1nw46856 0.0 1028288
12:00+1w4564100 0.0 1028668
15:00+2wsw485979 0.0 1026743
18:00+1sw51270100 0.0 1026447
21:00+2sw6137195 0.0 1024539
26 october, tue
tue2600:00+1wsw7147794 0.0 1023479
03:000wsw6138716 0.0 1022394
06:00−1wsw613925 0.0 1022348
09:00+1wsw6138471 0.0 1021410
12:00+4wsw61268100 0.0 1020514
15:00+5sw61270100 0.0 1019513
18:00+3sw6147856 0.0 1019365
21:00+3sw61479100 0.0 1019395
27 october, wed
wed2700:00+2sw61381100 0.0 1019369
03:00+1sw6138387 0.0 1018334
06:00+1sw6138693 0.0 1017305
09:00+2sw6147995 0.0 1017408
12:00+5sw71367100 0.0 1016572
15:00+6sw71263100 0.0 1014679
18:00+5sw61369100 0.0 1014626
21:00+3w51097100 0.3 1015715